Miscellaneous Local Product
Issued by NWS Hastings, NE

Home | Current Version | Previous Version | Graphics & Text | Print | Product List | Glossary On
Versions: 1 2 3 4 5 6 7 8 9 10 11 12 13 14 15 16 17 18 19 20 21 22 23 24 25 26 27 28 29 30 31 32 33 34 35 36 37 38 39 40 41 42 43 44 45 46 47 48 49 50
000
AXUS43 KGID 250702
MISGRI

GID CWA HOURLY WEATHER ROUNDUP
NATIONAL WEATHER SERVICE HASTINGS NE
200 AM CDT MON MAY 25 2015

NOTE: "FAIR" INDICATES FEW OR NO CLOUDS BELOW 12,000 FEET WITH NO
SIGNIFICANT WEATHER AND/OR OBSTRUCTIONS TO VISIBILITY.

...SOUTH CENTRAL NEBRASKA...

CITY           SKY/WX    TMP DP  RH WIND       PRES   REMARKS
GRAND ISLAND   MOCLDY    61  59  93 S10       29.78F
HASTINGS       MOCLDY    60  59  96 SW3       29.78F
KEARNEY        CLOUDY    61  57  88 S9        29.78F
ORD            FOG       55  54  96 SE3       29.76F VSB 1/4
YORK           CLOUDY    61  59  94 SW9       29.79F
AURORA         MOCLDY    61  61 100 SW8       29.79F
LEXINGTON      CLOUDY    53  52  95 S14       29.81R
HOLDREGE       RAIN      56  53  89 SW13      29.82R
HEBRON         CLOUDY    61  58  91 SW6       29.80S

...NEBRASKA PANHANDLE...

CITY           SKY/WX    TMP DP  RH WIND       PRES   REMARKS
CHADRON        CLOUDY    53  51  93 CALM      29.82S
ALLIANCE       CLOUDY    51  50  96 CALM      29.81F
SCOTTSBLUFF    LGT RAIN  52  49  89 E5        29.84F
SIDNEY         CLOUDY    50  47  89 NE5       29.82F

...WESTERN AND NORTH CENTRAL NEBRASKA...

CITY           SKY/WX    TMP DP  RH WIND       PRES   REMARKS
VALENTINE      CLOUDY    57  56  96 NE3       29.79F
AINSWORTH      FOG       57  57 100 E3        29.80F VSB 1/2
ONEILL         FOG       56  56  99 CALM      29.79S VSB 1/4
BROKEN BOW     CLOUDY    56  53  90 CALM      29.76F
IMPERIAL       CLOUDY    52  49  89 SE7       29.80R
NORTH PLATTE   CLOUDY    50  48  93 SE5       29.78F
MCCOOK         CLOUDY    54  52  93 NE7       29.76F

...EASTERN NEBRASKA...

CITY           SKY/WX    TMP DP  RH WIND       PRES   REMARKS
NORFOLK        CLOUDY    59  59 100 CALM      29.77F FOG
SO SIOUX CITY  MOCLDY    60  58  92 W5        29.75F
TEKAMAH        CLOUDY    63  61  93 SW3       29.75F
COLUMBUS       CLOUDY    59  54  82 CALM      29.81S
ALBION         CLOUDY    58  56  94 NW3       29.79F FOG
OMAHA EPPLEY   CLOUDY    65  60  84 SW5       29.77S
OFFUTT AFB     CLOUDY    61  60  95 S5        29.77S
MILLARD        CLOUDY    64  60  88 CALM      29.77F
LINCOLN        CLOUDY    60  59  96 CALM      29.79S
NEBRASKA CITY  CLOUDY    61  61 100 S3        29.79F
BEATRICE       MOCLDY    62  61  96 SW7       29.80F
FALLS CITY     LGT RAIN  62  61  96 S8        29.80S

...NORTHERN KANSAS...

CITY           SKY/WX    TMP DP  RH WIND       PRES   REMARKS
GOODLAND       CLOUDY    50  49  96 S9        29.83F
HILL CITY      CLOUDY    55  52  89 SE6       29.76F
NORTON         PTSUNNY   54  50  87 CALM      29.75F
PHILLIPSBURG   HVY RAIN  59  55  88 NW5       29.77F
SMITH CENTER   MOCLDY    54  54 100 CALM      29.81F
HAYS           CLOUDY    55  48  76 SE10      29.84S THUNDER
RUSSELL        LGT RAIN  57  55  93 W6        29.82S
CONCORDIA      MOCLDY    59  57  93 SW5       29.80S
SALINA         MOCLDY    59  56  89 SW5       29.81R
TOPEKA         CLOUDY    63  61  93 CALM      29.83R



USA.gov is the U.S. government's official web portal to all federal, state and local government web resources and services.